Weather History for KBZN - February, 2013

Change the Weather History Date:

Wednesday, February 6, 2013

  Actual Average Record
Temperature  
Mean Temperature 29 °F 25 °F  
Max Temperature 39 °F 38 °F 61 °F (2015)
Min Temperature 18 °F 13 °F -34 °F (2014)
Degree Days  
Heating Degree Days 36 40  
Month to date heating degree days 215 240  
Since 1 July heating degree days 4850 4762  
Cooling Degree Days 0 0  
Month to date cooling degree days 0 0  
Year to date cooling degree days 0 0  
Moisture  
Dew Point 20 °F    
Average Humidity 66    
Maximum Humidity 84    
Minimum Humidity 48    
Precipitation  
Precipitation 0.00 in 0.01 in 0.21 in (2010)
Month to date precipitation T 0.08  
Year to date precipitation 0.24 0.56  
Snow  
Snow 0.00 in 0.10 in 2.00 in (1973)
Month to date snowfall T 0.9  
Since 1 July snowfall 16.9 18.3  
Snow Depth 6.00 in    
Sea Level Pressure  
Sea Level Pressure 30.04 in    
Wind  
Wind Speed 5 mph (SSE)    
Max Wind Speed 17 mph    
Max Gust Speed 22 mph    
Visibility 10 miles    
Events      
T = Trace of Precipitation, MM = Missing Value Source: NWS Daily Summary

Daily Weather History Graph

Daily Weather History Graph

Search for Another Location

Airport or City:

Trip Planner

Search our weather history database for the weather conditions in past years. The results will help you decide how hot, cold, wet, or windy it might be!

Date:

Astronomy

Feb. 06, 2013 Rise Set
Actual Time 7:39 AM MST 5:38 PM MST
Civil Twilight 7:08 AM MST 6:09 PM MST
Nautical Twilight 6:32 AM MST 6:45 PM MST
Astronomical Twilight 5:58 AM MST 7:19 PM MST
Moon 4:32 AM MST (2/6) 1:54 PM MST (2/6)
Length of Visible Light 11h 01m
Length of Day
9h 58m
Waning Crescent, 16% of the Moon is Illuminated
Feb 6
Waning Crescent
Feb 10
New
Feb 17
First Quarter
Feb 25
Full
Mar 4
Last Quarter

Hourly Weather History & Observations

Time (MST) Temp. Windchill Dew Point Humidity Pressure Visibility Wind Dir Wind Speed Gust Speed Precip Events Conditions
12:56 AM 30.2 °F 24.3 °F 19.4 °F 64% 29.80 in 10.0 mi NE 5.8 mph - N/A   Clear
1:56 AM 30.9 °F 24.3 °F 19.9 °F 64% 29.89 in 10.0 mi WNW 6.9 mph - N/A   Overcast
2:56 AM 30.2 °F 20.2 °F 21.2 °F 69% 29.84 in 10.0 mi NW 12.7 mph - N/A   Clear
3:56 AM 30.0 °F 24.1 °F 21.9 °F 72% 29.93 in 10.0 mi SE 5.8 mph - N/A   Overcast
4:56 AM 28.9 °F 23.9 °F 21.9 °F 75% 29.96 in 10.0 mi South 4.6 mph - N/A   Mostly Cloudy
5:56 AM 28.9 °F 25.2 °F 21.0 °F 72% 29.97 in 10.0 mi SSW 3.5 mph - N/A   Scattered Clouds
6:56 AM 26.1 °F 18.4 °F 19.0 °F 75% 29.99 in 10.0 mi South 6.9 mph - N/A   Clear
7:56 AM 21.9 °F - 17.1 °F 82% 30.05 in 10.0 mi Calm Calm - N/A   Mostly Cloudy
8:56 AM 24.1 °F - 18.0 °F 77% 30.06 in 10.0 mi Calm Calm - N/A   Partly Cloudy
9:56 AM 28.4 °F 23.3 °F 21.2 °F 74% 29.97 in 10.0 mi South 4.6 mph - N/A   Mostly Cloudy
10:56 AM 33.1 °F - 23.0 °F 66% 30.05 in 10.0 mi Calm Calm - N/A   Overcast
11:56 AM 36.0 °F - 21.9 °F 57% 30.04 in 10.0 mi Calm Calm - N/A   Mostly Cloudy
12:56 PM 37.0 °F 34.5 °F 23.0 °F 57% 30.04 in 10.0 mi ESE 3.5 mph - N/A   Clear
1:56 PM 36.0 °F 30.3 °F 23.0 °F 59% 30.03 in 10.0 mi East 6.9 mph - N/A   Partly Cloudy
2:56 PM 36.0 °F 32.1 °F 21.9 °F 57% 30.04 in 10.0 mi SSE 4.6 mph - N/A   Mostly Cloudy
3:56 PM 35.1 °F 30.1 °F 21.9 °F 59% 30.06 in 10.0 mi SE 5.8 mph - N/A   Overcast
4:56 PM 37.0 °F 34.5 °F 19.9 °F 50% 30.07 in 10.0 mi South 3.5 mph - N/A   Overcast
5:56 PM 34.0 °F 26.6 °F 24.1 °F 67% 30.10 in 10.0 mi NNE 9.2 mph - N/A   Overcast
6:56 PM 30.0 °F - 21.0 °F 69% 30.14 in 10.0 mi Calm Calm - N/A   Clear
7:56 PM 30.9 °F 26.2 °F 19.9 °F 64% 30.16 in 10.0 mi SW 4.6 mph - N/A   Mostly Cloudy
8:56 PM 25.0 °F 20.7 °F 17.1 °F 72% 30.19 in 10.0 mi East 3.5 mph - N/A   Clear
9:56 PM 24.1 °F 19.7 °F 17.1 °F 75% 30.19 in 10.0 mi SSW 3.5 mph - N/A   Clear
10:56 PM 21.0 °F 9.9 °F 14.0 °F 74% 30.19 in 10.0 mi SE 10.4 mph - N/A   Clear
11:56 PM 21.0 °F 12.4 °F 12.9 °F 71% 30.18 in 10.0 mi SSE 6.9 mph - N/A   Clear